| time (UTC) | temp F | wind direction | speed knots | gust knots | rain 1hr in | rain 24hr in | rain mn in | humidity % | barometer mb |
| 20260508033552 | 60 | 180 | 0.0 | 0.0 | 0.00 | 0.00 | 0.00 | 75 | 1012.8 |
| 20260508032542 | 60 | 180 | 0.0 | 0.0 | 0.00 | 0.00 | 0.00 | 74 | 1012.6 |
| 20260508032037 | 60 | 158 | 0.0 | 0.0 | 0.00 | 0.00 | 0.00 | 73 | 1012.6 |
| 20260508031527 | 60 | 203 | 0.0 | 0.0 | 0.00 | 0.00 | 0.00 | 73 | 1012.6 |
| 20260508031022 | 60 | 135 | 0.0 | 0.0 | 0.00 | 0.00 | 0.00 | 74 | 1012.4 |
| 20260508030517 | 61 | 180 | 0.0 | 0.0 | 0.00 | 0.00 | 0.00 | 72 | 1012.4 |
| 20260508030012 | 61 | 135 | 0.0 | 0.0 | 0.00 | 0.00 | 0.00 | 72 | 1012.3 |
| 20260508024957 | 62 | 248 | 0.0 | 0.0 | 0.00 | 0.00 | 0.00 | 71 | 1012.2 |
| 20260508023407 | 63 | 0 | 0.0 | 0.0 | 0.00 | 0.00 | 0.00 | 66 | 1012.0 |
| 20260508022857 | 63 | 338 | 0.0 | 0.0 | 0.00 | 0.00 | 0.00 | 65 | 1012.0 |
| 20260508022352 | 63 | 270 | 0.0 | 0.0 | 0.00 | 0.00 | 0.00 | 64 | 1012.0 |
| 20260508021847 | 63 | 315 | 0.0 | 0.0 | 0.00 | 0.00 | 0.00 | 64 | 1012.0 |
| 20260508021342 | 64 | 315 | 1.7 | 1.7 | 0.00 | 0.00 | 0.00 | 63 | 1011.9 |
| 20260508020837 | 64 | 293 | 1.7 | 1.7 | 0.00 | 0.00 | 0.00 | 62 | 1011.9 |
| 20260508015822 | 66 | 225 | 0.0 | 0.0 | 0.00 | 0.00 | 0.00 | 66 | 1011.9 |
| 20260508015305 | 66 | 135 | 0.9 | 0.9 | 0.00 | 0.00 | 0.00 | 64 | 1011.9 |
| 20260508013742 | 67 | 135 | 0.9 | 0.9 | 0.00 | 0.00 | 0.00 | 63 | 1011.8 |
| 20260508013237 | 68 | 113 | 1.7 | 1.7 | 0.00 | 0.00 | 0.00 | 63 | 1011.8 |
| 20260508012222 | 69 | 135 | 0.0 | 0.0 | 0.00 | 0.00 | 0.00 | 62 | 1011.8 |
| 20260508011717 | 69 | 158 | 0.0 | 0.0 | 0.00 | 0.00 | 0.00 | 62 | 1011.8 |
| 20260508010647 | 69 | 203 | 0.0 | 0.0 | 0.00 | 0.00 | 0.00 | 61 | 1011.8 |
| 20260508010142 | 71 | 45 | 2.6 | 2.6 | 0.00 | 0.00 | 0.00 | 60 | 1011.9 |
| 20260508005637 | 71 | 90 | 0.9 | 0.9 | 0.00 | 0.00 | 0.00 | 60 | 1011.9 |
| 20260508005127 | 71 | 315 | 2.6 | 2.6 | 0.00 | 0.00 | 0.00 | 59 | 1011.9 |
| 20260508004622 | 70 | 113 | 0.9 | 0.9 | 0.00 | 0.00 | 0.00 | 61 | 1011.8 |
| 20260508003612 | 71 | 270 | 0.0 | 0.0 | 0.00 | 0.00 | 0.00 | 59 | 1011.8 |
| 20260508003107 | 72 | 113 | 0.9 | 0.9 | 0.00 | 0.00 | 0.00 | 58 | 1011.8 |
| 20260508002557 | 71 | 113 | 0.9 | 0.9 | 0.00 | 0.00 | 0.00 | 59 | 1011.9 |
| 20260508002052 | 70 | 225 | 1.7 | 1.7 | 0.00 | 0.00 | 0.00 | 60 | 1011.9 |
| 20260508001547 | 71 | 158 | 2.6 | 2.6 | 0.00 | 0.00 | 0.00 | 60 | 1011.9 |
| 20260508001042 | 71 | 135 | 0.9 | 0.9 | 0.00 | 0.00 | 0.00 | 59 | 1011.9 |
| 20260507235652 | 73 | 68 | 1.7 | 1.7 | 0.00 | 0.00 | 0.00 | 56 | 1012.0 |
| 20260507235148 | 74 | 180 | 0.9 | 0.9 | 0.00 | 0.00 | 0.00 | 55 | 1012.0 |
| 20260507234642 | 75 | 270 | 0.9 | 0.9 | 0.00 | 0.00 | 0.00 | 54 | 1011.9 |
| 20260507234137 | 74 | 315 | 1.7 | 1.7 | 0.00 | 0.00 | 0.00 | 54 | 1011.9 |
| 20260507233122 | 76 | 135 | 2.6 | 2.6 | 0.00 | 0.00 | 0.00 | 53 | 1011.9 |
| 20260507232617 | 74 | 158 | 2.6 | 2.6 | 0.00 | 0.00 | 0.00 | 54 | 1012.1 |
| 20260507231057 | 76 | 90 | 1.7 | 1.7 | 0.00 | 0.00 | 0.00 | 52 | 1012.0 |
| 20260507225557 | 76 | 180 | 2.6 | 2.6 | 0.00 | 0.00 | 0.00 | 51 | 1012.2 |
| 20260507224547 | 77 | 338 | 1.7 | 1.7 | 0.00 | 0.00 | 0.00 | 51 | 1012.1 |
| 20260507224042 | 76 | 180 | 2.6 | 2.6 | 0.00 | 0.00 | 0.00 | 52 | 1012.1 |
| 20260507223537 | 77 | 338 | 1.7 | 1.7 | 0.00 | 0.00 | 0.00 | 51 | 1012.3 |
| 20260507223027 | 77 | 45 | 1.7 | 1.7 | 0.00 | 0.00 | 0.00 | 51 | 1012.3 |
| 20260507222522 | 77 | 45 | 1.7 | 1.7 | 0.00 | 0.00 | 0.00 | 51 | 1012.4 |
| 20260507222017 | 77 | 113 | 1.7 | 1.7 | 0.00 | 0.00 | 0.00 | 51 | 1012.4 |
| 20260507221513 | 77 | 113 | 2.6 | 2.6 | 0.00 | 0.00 | 0.00 | 51 | 1012.4 |
| 20260507221002 | 76 | 338 | 0.0 | 0.0 | 0.00 | 0.00 | 0.00 | 52 | 1012.5 |
| 20260507220457 | 76 | 225 | 2.6 | 2.6 | 0.00 | 0.00 | 0.00 | 52 | 1012.5 |
| 20260507215952 | 76 | 23 | 2.6 | 2.6 | 0.00 | 0.00 | 0.00 | 52 | 1012.6 |
| 20260507215447 | 77 | 203 | 2.6 | 2.6 | 0.00 | 0.00 | 0.00 | 52 | 1012.6 |
| 20260507214942 | 76 | 338 | 1.7 | 1.7 | 0.00 | 0.00 | 0.00 | 52 | 1012.8 |
| 20260507214432 | 75 | 338 | 3.5 | 3.5 | 0.00 | 0.00 | 0.00 | 53 | 1012.8 |
| 20260507213928 | 75 | 158 | 2.6 | 2.6 | 0.00 | 0.00 | 0.00 | 54 | 1012.8 |
| 20260507213422 | 75 | 158 | 2.6 | 2.6 | 0.00 | 0.00 | 0.00 | 53 | 1012.8 |
| 20260507212412 | 76 | 338 | 2.6 | 2.6 | 0.00 | 0.00 | 0.00 | 52 | 1013.0 |
| 20260507211907 | 75 | 0 | 1.7 | 1.7 | 0.00 | 0.00 | 0.00 | 52 | 1013.0 |
| 20260507210817 | 75 | 248 | 2.6 | 2.6 | 0.00 | 0.00 | 0.00 | 55 | 1013.2 |
| 20260507210252 | 75 | 315 | 2.6 | 2.6 | 0.00 | 0.00 | 0.00 | 54 | 1013.2 |
| 20260507205748 | 76 | 293 | 2.6 | 2.6 | 0.00 | 0.00 | 0.00 | 53 | 1013.1 |
| 20260507205223 | 73 | 225 | 2.6 | 2.6 | 0.00 | 0.00 | 0.00 | 56 | 1013.1 |
| 20260507204718 | 76 | 293 | 2.6 | 2.6 | 0.00 | 0.00 | 0.00 | 51 | 1013.4 |
| 20260507204212 | 75 | 315 | 1.7 | 1.7 | 0.00 | 0.00 | 0.00 | 53 | 1013.4 |
| 20260507203703 | 77 | 293 | 5.2 | 5.2 | 0.00 | 0.00 | 0.00 | 49 | 1013.3 |
| 20260507202652 | 75 | 23 | 2.6 | 2.6 | 0.00 | 0.00 | 0.00 | 50 | 1013.3 |
| 20260507201137 | 75 | 0 | 2.6 | 2.6 | 0.00 | 0.00 | 0.00 | 50 | 1013.7 |
| 20260507200627 | 76 | 90 | 1.7 | 1.7 | 0.00 | 0.00 | 0.00 | 52 | 1013.7 |
| 20260507195618 | 73 | 203 | 4.3 | 4.3 | 0.00 | 0.00 | 0.00 | 54 | 1013.7 |
| 20260507195113 | 73 | 158 | 3.5 | 3.5 | 0.00 | 0.00 | 0.00 | 56 | 1013.7 |
| 20260507194548 | 73 | 248 | 3.5 | 3.5 | 0.00 | 0.00 | 0.00 | 55 | 1013.7 |
| 20260507194043 | 73 | 113 | 3.5 | 3.5 | 0.00 | 0.00 | 0.00 | 55 | 1013.7 |
| 20260507193538 | 73 | 135 | 3.5 | 3.5 | 0.00 | 0.00 | 0.00 | 55 | 1013.9 |
| 20260507193028 | 73 | 0 | 2.6 | 2.6 | 0.00 | 0.00 | 0.00 | 55 | 1013.9 |
| 20260507191958 | 73 | 180 | 4.3 | 4.3 | 0.00 | 0.00 | 0.00 | 55 | 1014.0 |
| 20260507190928 | 71 | 135 | 3.5 | 3.5 | 0.00 | 0.00 | 0.00 | 58 | 1014.1 |
| 20260507185408 | 69 | 203 | 5.2 | 5.2 | 0.00 | 0.00 | 0.00 | 63 | 1014.1 |
| 20260507184903 | 70 | 225 | 4.3 | 4.3 | 0.00 | 0.00 | 0.00 | 61 | 1014.3 |
| 20260507184358 | 74 | 113 | 3.5 | 3.5 | 0.00 | 0.00 | 0.00 | 54 | 1014.3 |
| 20260507183853 | 74 | 270 | 1.7 | 1.7 | 0.00 | 0.00 | 0.00 | 54 | 1014.3 |
| 20260507182838 | 71 | 113 | 4.3 | 4.3 | 0.00 | 0.00 | 0.00 | 58 | 1014.1 |
| 20260507182333 | 75 | 158 | 2.6 | 2.6 | 0.00 | 0.00 | 0.00 | 52 | 1014.2 |
| 20260507181323 | 72 | 338 | 2.6 | 2.6 | 0.00 | 0.00 | 0.00 | 57 | 1014.3 |
| 20260507180818 | 71 | 225 | 1.7 | 1.7 | 0.00 | 0.00 | 0.00 | 58 | 1014.3 |
| 20260507180308 | 71 | 203 | 4.3 | 4.3 | 0.00 | 0.00 | 0.00 | 59 | 1014.3 |
| 20260507175803 | 71 | 23 | 1.7 | 1.7 | 0.00 | 0.00 | 0.00 | 60 | 1014.1 |
| 20260507175258 | 71 | 270 | 1.7 | 1.7 | 0.00 | 0.00 | 0.00 | 60 | 1014.1 |
| 20260507174754 | 70 | 338 | 1.7 | 1.7 | 0.00 | 0.00 | 0.00 | 60 | 1014.3 |
| 20260507174243 | 68 | 158 | 3.5 | 3.5 | 0.00 | 0.00 | 0.00 | 65 | 1014.3 |
| 20260507173738 | 66 | 180 | 5.2 | 5.2 | 0.00 | 0.00 | 0.00 | 67 | 1014.3 |
| 20260507173233 | 68 | 158 | 4.3 | 4.3 | 0.00 | 0.00 | 0.00 | 65 | 1014.3 |
| 20260507172728 | 68 | 113 | 2.6 | 2.6 | 0.00 | 0.00 | 0.00 | 65 | 1014.3 |
| 20260507172223 | 71 | 113 | 2.6 | 2.6 | 0.00 | 0.00 | 0.00 | 59 | 1014.3 |
| 20260507171713 | 69 | 0 | 2.6 | 2.6 | 0.00 | 0.00 | 0.00 | 59 | 1014.3 |
| 20260507171208 | 69 | 293 | 4.3 | 4.3 | 0.00 | 0.00 | 0.00 | 60 | 1014.4 |
| 20260507170703 | 70 | 113 | 1.7 | 1.7 | 0.00 | 0.00 | 0.00 | 60 | 1014.4 |
| 20260507170158 | 68 | 113 | 1.7 | 1.7 | 0.00 | 0.00 | 0.00 | 63 | 1014.3 |
| 20260507165648 | 69 | 158 | 2.6 | 2.6 | 0.00 | 0.00 | 0.00 | 61 | 1014.3 |
| 20260507165143 | 69 | 90 | 1.7 | 1.7 | 0.00 | 0.00 | 0.00 | 61 | 1014.3 |
| 20260507164638 | 68 | 158 | 1.7 | 1.7 | 0.00 | 0.00 | 0.00 | 63 | 1014.4 |
| 20260507164133 | 68 | 315 | 2.6 | 2.6 | 0.00 | 0.00 | 0.00 | 61 | 1014.4 |
| 20260507163123 | 67 | 113 | 4.3 | 4.3 | 0.00 | 0.00 | 0.00 | 62 | 1014.5 |
| 20260507162613 | 68 | 135 | 2.6 | 2.6 | 0.00 | 0.00 | 0.00 | 60 | 1014.3 |
| 20260507162108 | 67 | 135 | 1.7 | 1.7 | 0.00 | 0.00 | 0.00 | 63 | 1014.3 |
| 20260507161058 | 66 | 158 | 0.9 | 0.9 | 0.00 | 0.00 | 0.00 | 64 | 1014.6 |
| 20260507160548 | 66 | 180 | 2.6 | 2.6 | 0.00 | 0.00 | 0.00 | 64 | 1014.6 |
| 20260507155538 | 65 | 113 | 3.5 | 3.5 | 0.00 | 0.00 | 0.00 | 65 | 1014.4 |
| 20260507155033 | 65 | 158 | 3.5 | 3.5 | 0.00 | 0.00 | 0.00 | 64 | 1014.5 |
| 20260507154528 | 65 | 68 | 5.2 | 5.2 | 0.00 | 0.00 | 0.00 | 65 | 1014.5 |
| 20260507154018 | 65 | 158 | 3.5 | 3.5 | 0.00 | 0.00 | 0.00 | 67 | 1014.5 |
| 20260507153513 | 64 | 225 | 4.3 | 4.3 | 0.00 | 0.00 | 0.00 | 68 | 1014.5 |
| 20260507153008 | 64 | 180 | 3.5 | 3.5 | 0.00 | 0.00 | 0.00 | 68 | 1014.5 |
| 20260507152503 | 64 | 113 | 4.3 | 4.3 | 0.00 | 0.00 | 0.00 | 68 | 1014.6 |
| 20260507151958 | 64 | 158 | 3.5 | 3.5 | 0.00 | 0.00 | 0.00 | 68 | 1014.6 |
| 20260507151448 | 64 | 158 | 1.7 | 1.7 | 0.00 | 0.00 | 0.00 | 67 | 1014.5 |
| 20260507150943 | 64 | 180 | 2.6 | 2.6 | 0.00 | 0.00 | 0.00 | 69 | 1014.5 |
| 20260507150418 | 63 | 180 | 2.6 | 2.6 | 0.00 | 0.00 | 0.00 | 68 | 1014.5 |
| 20260507145408 | 64 | 180 | 2.6 | 2.6 | 0.00 | 0.00 | 0.00 | 68 | 1014.4 |
| 20260507144903 | 63 | 113 | 0.9 | 0.9 | 0.00 | 0.00 | 0.00 | 70 | 1014.4 |
| 20260507144358 | 62 | 135 | 3.5 | 3.5 | 0.00 | 0.00 | 0.00 | 72 | 1014.4 |
| 20260507143848 | 62 | 113 | 3.5 | 3.5 | 0.00 | 0.00 | 0.00 | 71 | 1014.3 |
| 20260507143343 | 62 | 135 | 1.7 | 1.7 | 0.00 | 0.00 | 0.00 | 72 | 1014.3 |
| 20260507142838 | 61 | 158 | 3.5 | 3.5 | 0.00 | 0.00 | 0.00 | 72 | 1014.3 |
| 20260507142333 | 61 | 113 | 2.6 | 2.6 | 0.00 | 0.00 | 0.00 | 71 | 1014.1 |
| 20260507141828 | 61 | 135 | 3.5 | 3.5 | 0.00 | 0.00 | 0.00 | 69 | 1014.1 |
| 20260507140813 | 60 | 135 | 1.7 | 1.7 | 0.00 | 0.00 | 0.00 | 72 | 1014.1 |
| 20260507140308 | 61 | 90 | 1.7 | 1.7 | 0.00 | 0.00 | 0.00 | 72 | 1014.1 |
| 20260507135804 | 60 | 135 | 0.9 | 0.9 | 0.00 | 0.00 | 0.00 | 74 | 1013.9 |
| 20260507134243 | 59 | 113 | 0.9 | 0.9 | 0.00 | 0.00 | 0.00 | 72 | 1013.7 |
| 20260507133738 | 59 | 158 | 1.7 | 1.7 | 0.00 | 0.00 | 0.00 | 73 | 1013.8 |
| 20260507133233 | 59 | 135 | 2.6 | 2.6 | 0.00 | 0.00 | 0.00 | 72 | 1013.8 |
| 20260507132218 | 57 | 203 | 0.0 | 0.0 | 0.00 | 0.00 | 0.00 | 78 | 1013.8 |
| 20260507131713 | 55 | 203 | 0.0 | 0.0 | 0.00 | 0.00 | 0.00 | 82 | 1013.8 |
| 20260507131208 | 55 | 180 | 0.0 | 0.0 | 0.00 | 0.00 | 0.00 | 83 | 1013.7 |
| 20260507130703 | 55 | 203 | 0.0 | 0.0 | 0.00 | 0.00 | 0.00 | 82 | 1013.7 |
| 20260507130158 | 55 | 135 | 0.0 | 0.0 | 0.00 | 0.00 | 0.00 | 80 | 1013.5 |
| 20260507125648 | 56 | 158 | 1.7 | 1.7 | 0.00 | 0.00 | 0.00 | 78 | 1013.5 |
| 20260507125143 | 54 | 180 | 0.0 | 0.0 | 0.00 | 0.00 | 0.00 | 83 | 1013.5 |
| 20260507124638 | 54 | 225 | 0.0 | 0.0 | 0.00 | 0.00 | 0.00 | 83 | 1013.5 |
| 20260507124133 | 54 | 180 | 0.0 | 0.0 | 0.00 | 0.00 | 0.00 | 82 | 1013.5 |
| 20260507123628 | 54 | 248 | 0.0 | 0.0 | 0.00 | 0.00 | 0.00 | 81 | 1013.5 |
| 20260507123118 | 55 | 293 | 0.0 | 0.0 | 0.00 | 0.00 | 0.00 | 81 | 1013.5 |
| 20260507122613 | 56 | 338 | 0.0 | 0.0 | 0.00 | 0.00 | 0.00 | 79 | 1013.6 |
| 20260507122108 | 56 | 180 | 0.0 | 0.0 | 0.00 | 0.00 | 0.00 | 79 | 1013.6 |
| 20260507121604 | 56 | 203 | 0.0 | 0.0 | 0.00 | 0.00 | 0.00 | 79 | 1013.6 |
| 20260507121058 | 54 | 225 | 0.0 | 0.0 | 0.00 | 0.00 | 0.00 | 83 | 1013.6 |
| 20260507120548 | 54 | 45 | 0.0 | 0.0 | 0.00 | 0.00 | 0.00 | 83 | 1013.6 |
| 20260507120043 | 54 | 225 | 0.0 | 0.0 | 0.00 | 0.00 | 0.00 | 82 | 1013.7 |
| 20260507115538 | 54 | 0 | 0.0 | 0.0 | 0.00 | 0.00 | 0.00 | 82 | 1013.7 |
| 20260507115033 | 54 | 315 | 0.9 | 0.9 | 0.00 | 0.00 | 0.00 | 82 | 1013.6 |
| 20260507114528 | 55 | 113 | 0.0 | 0.0 | 0.00 | 0.00 | 0.00 | 81 | 1013.6 |
| 20260507113513 | 55 | 315 | 1.7 | 1.7 | 0.00 | 0.00 | 0.00 | 82 | 1013.5 |
| 20260507113008 | 54 | 315 | 0.0 | 0.0 | 0.00 | 0.00 | 0.00 | 82 | 1013.5 |
| 20260507111953 | 54 | 315 | 0.0 | 0.0 | 0.00 | 0.00 | 0.00 | 82 | 1013.5 |
| 20260507110438 | 54 | 293 | 1.7 | 1.7 | 0.00 | 0.00 | 0.00 | 82 | 1013.8 |
| 20260507105933 | 55 | 270 | 0.0 | 0.0 | 0.00 | 0.00 | 0.00 | 80 | 1013.9 |
| 20260507105424 | 55 | 135 | 0.9 | 0.9 | 0.00 | 0.00 | 0.00 | 79 | 1013.9 |
| 20260507104919 | 55 | 293 | 1.7 | 1.7 | 0.00 | 0.00 | 0.00 | 79 | 1013.9 |
| 20260507104413 | 55 | 293 | 1.7 | 1.7 | 0.00 | 0.00 | 0.00 | 80 | 1013.9 |
| 20260507103908 | 55 | 338 | 0.9 | 0.9 | 0.00 | 0.00 | 0.00 | 81 | 1013.9 |
| 20260507103403 | 55 | 293 | 0.0 | 0.0 | 0.00 | 0.00 | 0.00 | 81 | 1013.9 |
| 20260507102853 | 55 | 293 | 0.0 | 0.0 | 0.00 | 0.00 | 0.00 | 81 | 1013.9 |
| 20260507102349 | 55 | 315 | 0.0 | 0.0 | 0.00 | 0.00 | 0.00 | 81 | 1014.1 |
| 20260507101843 | 55 | 293 | 0.0 | 0.0 | 0.00 | 0.00 | 0.00 | 82 | 1014.1 |
| 20260507101339 | 54 | 293 | 0.0 | 0.0 | 0.00 | 0.00 | 0.00 | 82 | 1014.1 |
| 20260507100833 | 54 | 0 | 0.0 | 0.0 | 0.00 | 0.00 | 0.00 | 83 | 1014.1 |
| 20260507095314 | 53 | 0 | 0.0 | 0.0 | 0.00 | 0.00 | 0.00 | 86 | 1014.1 |
| 20260507094809 | 53 | 293 | 0.9 | 0.9 | 0.00 | 0.00 | 0.00 | 86 | 1014.2 |
| 20260507094304 | 54 | 338 | 0.0 | 0.0 | 0.00 | 0.00 | 0.00 | 86 | 1014.2 |
| 20260507093753 | 54 | 203 | 0.0 | 0.0 | 0.00 | 0.00 | 0.00 | 86 | 1014.3 |
| 20260507093249 | 54 | 248 | 0.0 | 0.0 | 0.00 | 0.00 | 0.00 | 86 | 1014.3 |
| 20260507092744 | 54 | 90 | 0.0 | 0.0 | 0.00 | 0.00 | 0.00 | 86 | 1014.3 |
| 20260507092239 | 55 | 113 | 0.0 | 0.0 | 0.00 | 0.00 | 0.00 | 86 | 1014.3 |
| 20260507091734 | 55 | 158 | 1.7 | 1.7 | 0.00 | 0.00 | 0.00 | 86 | 1014.3 |
| 20260507090719 | 55 | 180 | 1.7 | 1.7 | 0.00 | 0.00 | 0.00 | 83 | 1014.5 |
| 20260507085204 | 55 | 203 | 0.0 | 0.0 | 0.00 | 0.00 | 0.00 | 83 | 1014.6 |
| 20260507084149 | 54 | 293 | 0.0 | 0.0 | 0.00 | 0.00 | 0.00 | 83 | 1014.7 |
| 20260507083644 | 54 | 225 | 0.0 | 0.0 | 0.00 | 0.00 | 0.00 | 83 | 1014.8 |
| 20260507083139 | 54 | 248 | 0.0 | 0.0 | 0.00 | 0.00 | 0.00 | 83 | 1014.8 |
| 20260507082634 | 55 | 225 | 0.0 | 0.0 | 0.00 | 0.00 | 0.00 | 82 | 1014.8 |
| 20260507082124 | 55 | 203 | 0.0 | 0.0 | 0.00 | 0.00 | 0.00 | 82 | 1014.9 |
| 20260507081619 | 55 | 203 | 0.0 | 0.0 | 0.00 | 0.00 | 0.00 | 82 | 1014.9 |
| 20260507081114 | 54 | 225 | 0.0 | 0.0 | 0.00 | 0.00 | 0.00 | 83 | 1014.9 |
| 20260507080104 | 55 | 23 | 0.0 | 0.0 | 0.00 | 0.00 | 0.00 | 81 | 1014.9 |
| 20260507075554 | 55 | 113 | 0.0 | 0.0 | 0.00 | 0.00 | 0.00 | 79 | 1014.9 |
| 20260507075049 | 55 | 293 | 0.0 | 0.0 | 0.00 | 0.00 | 0.00 | 79 | 1014.9 |
| 20260507074544 | 55 | 293 | 0.9 | 0.9 | 0.00 | 0.00 | 0.00 | 79 | 1014.9 |
| 20260507074039 | 55 | 248 | 0.0 | 0.0 | 0.00 | 0.00 | 0.00 | 78 | 1014.9 |
| 20260507073024 | 55 | 315 | 0.0 | 0.0 | 0.00 | 0.00 | 0.00 | 78 | 1015.0 |
| 20260507072519 | 55 | 315 | 0.0 | 0.0 | 0.00 | 0.00 | 0.00 | 78 | 1015.1 |
| 20260507071509 | 56 | 225 | 0.0 | 0.0 | 0.00 | 0.00 | 0.00 | 77 | 1015.1 |
| 20260507071004 | 56 | 248 | 0.0 | 0.0 | 0.00 | 0.00 | 0.00 | 76 | 1015.1 |
| 20260507065949 | 56 | 315 | 1.7 | 1.7 | 0.00 | 0.00 | 0.00 | 76 | 1015.1 |
| 20260507065444 | 57 | 225 | 0.0 | 0.0 | 0.00 | 0.00 | 0.00 | 75 | 1015.1 |
| 20260507064434 | 57 | 315 | 1.7 | 1.7 | 0.00 | 0.00 | 0.00 | 76 | 1015.1 |
| 20260507063924 | 57 | 338 | 1.7 | 1.7 | 0.00 | 0.00 | 0.00 | 76 | 1015.1 |
| 20260507063419 | 57 | 248 | 0.9 | 0.9 | 0.00 | 0.00 | 0.00 | 75 | 1015.2 |
| 20260507062914 | 57 | 45 | 0.0 | 0.0 | 0.00 | 0.00 | 0.00 | 75 | 1015.2 |
| 20260507062409 | 57 | 315 | 2.6 | 2.6 | 0.00 | 0.00 | 0.00 | 75 | 1015.1 |
| 20260507061354 | 57 | 248 | 1.7 | 1.7 | 0.00 | 0.00 | 0.00 | 76 | 1015.2 |
| 20260507060849 | 57 | 270 | 2.6 | 2.6 | 0.00 | 0.00 | 0.00 | 76 | 1015.2 |
| 20260507060344 | 57 | 293 | 3.5 | 3.5 | 0.00 | 0.00 | 0.00 | 77 | 1015.2 |
| 20260507055839 | 57 | 248 | 3.5 | 3.5 | 0.00 | 0.00 | 0.00 | 77 | 1015.2 |
| 20260507055329 | 56 | 270 | 3.5 | 3.5 | 0.00 | 0.00 | 0.00 | 77 | 1015.2 |
| 20260507054824 | 56 | 293 | 3.5 | 3.5 | 0.00 | 0.00 | 0.00 | 77 | 1015.1 |
| 20260507054319 | 56 | 0 | 4.3 | 4.3 | 0.00 | 0.00 | 0.00 | 77 | 1015.1 |
| 20260507053814 | 56 | 315 | 3.5 | 3.5 | 0.00 | 0.00 | 0.00 | 77 | 1015.2 |
| 20260507052804 | 56 | 338 | 3.5 | 3.5 | 0.00 | 0.00 | 0.00 | 77 | 1015.2 |
| 20260507052254 | 56 | 315 | 2.6 | 2.6 | 0.00 | 0.00 | 0.00 | 77 | 1015.2 |
| 20260507051749 | 57 | 293 | 1.7 | 1.7 | 0.00 | 0.00 | 0.00 | 76 | 1015.2 |
| 20260507051244 | 57 | 293 | 2.6 | 2.6 | 0.00 | 0.00 | 0.00 | 76 | 1015.1 |
| 20260507050739 | 57 | 270 | 2.6 | 2.6 | 0.00 | 0.00 | 0.00 | 76 | 1015.1 |
| 20260507050229 | 57 | 248 | 3.5 | 3.5 | 0.00 | 0.00 | 0.00 | 76 | 1015.1 |
| 20260507045724 | 56 | 270 | 3.5 | 3.5 | 0.00 | 0.00 | 0.00 | 76 | 1015.1 |
| 20260507045219 | 56 | 338 | 2.6 | 2.6 | 0.00 | 0.00 | 0.00 | 76 | 1015.1 |
| 20260507044714 | 56 | 90 | 0.9 | 0.9 | 0.00 | 0.00 | 0.00 | 76 | 1015.1 |
| 20260507044209 | 57 | 315 | 0.9 | 0.9 | 0.00 | 0.00 | 0.00 | 75 | 1015.1 |
| 20260507043659 | 57 | 293 | 0.0 | 0.0 | 0.00 | 0.00 | 0.00 | 75 | 1015.1 |
| 20260507043154 | 57 | 338 | 1.7 | 1.7 | 0.00 | 0.00 | 0.00 | 74 | 1015.1 |
| 20260507042629 | 57 | 338 | 1.7 | 1.7 | 0.00 | 0.00 | 0.00 | 73 | 1015.1 |
| 20260507042124 | 57 | 68 | 0.9 | 0.9 | 0.00 | 0.00 | 0.00 | 73 | 1015.1 |
| 20260507041619 | 57 | 270 | 1.7 | 1.7 | 0.00 | 0.00 | 0.00 | 73 | 1015.1 |
| 20260507041114 | 57 | 315 | 1.7 | 1.7 | 0.00 | 0.00 | 0.00 | 73 | 1015.1 |
| 20260507040609 | 57 | 203 | 0.9 | 0.9 | 0.00 | 0.00 | 0.00 | 72 | 1015.1 |
| 20260507040059 | 57 | 113 | 0.9 | 0.9 | 0.00 | 0.00 | 0.00 | 73 | 1014.8 |
| 20260507035554 | 57 | 158 | 0.9 | 0.9 | 0.00 | 0.00 | 0.00 | 73 | 1014.8 |
| 20260507035049 | 57 | 45 | 0.9 | 0.9 | 0.00 | 0.00 | 0.00 | 73 | 1014.8 |
| 20260507034544 | 58 | 135 | 0.0 | 0.0 | 0.00 | 0.00 | 0.00 | 70 | 1014.5 |
| 20260507034039 | 58 | 180 | 0.0 | 0.0 | 0.00 | 0.00 | 0.00 | 70 | 1014.5 |